TimeCST,TemperatureF,Dew PointF,Humidity,Sea Level PressureIn,VisibilityMPH,Wind Direction,Wind SpeedMPH,Gust SpeedMPH,PrecipitationIn,Events,Conditions,WindDirDegrees,DateUTC
12:53 AM,-8.0,-13.0,79,30.46,10.0,Calm,Calm,-,N/A,,Clear,0,2012-12-26 06:53:00
1:53 AM,-9.0,-15.0,75,30.45,10.0,Calm,Calm,-,N/A,,Clear,0,2012-12-26 07:53:00
3:53 AM,-6.0,-11.9,75,30.44,10.0,Calm,Calm,-,N/A,,Clear,0,2012-12-26 09:53:00
4:53 AM,-5.1,-9.9,80,30.45,10.0,Calm,Calm,-,N/A,,Clear,0,2012-12-26 10:53:00
5:53 AM,-2.9,-9.0,75,30.44,10.0,Calm,Calm,-,N/A,,Clear,0,2012-12-26 11:53:00
6:53 AM,-2.9,-8.0,79,30.44,10.0,Calm,Calm,-,N/A,,Clear,0,2012-12-26 12:53:00
7:53 AM,-2.0,-7.1,79,30.42,10.0,Calm,Calm,-,N/A,,Clear,0,2012-12-26 13:53:00
8:53 AM,1.0,-4.0,79,30.42,10.0,Calm,Calm,-,N/A,,Clear,0,2012-12-26 14:53:00
9:53 AM,3.0,-0.9,84,30.42,10.0,Calm,Calm,-,N/A,,Clear,0,2012-12-26 15:53:00
10:53 AM,7.0,3.0,84,30.41,10.0,Calm,Calm,-,N/A,,Clear,0,2012-12-26 16:53:00
11:53 AM,10.0,5.0,80,30.38,10.0,Calm,Calm,-,N/A,,Scattered Clouds,0,2012-12-26 17:53:00
12:53 PM,12.9,5.0,71,30.36,10.0,Calm,Calm,-,N/A,,Mostly Cloudy,0,2012-12-26 18:53:00
1:53 PM,16.0,6.1,65,30.35,10.0,Calm,Calm,-,N/A,,Overcast,0,2012-12-26 19:53:00
3:53 PM,18.0,6.1,60,30.34,10.0,Calm,Calm,-,N/A,,Mostly Cloudy,0,2012-12-26 21:53:00
4:53 PM,10.0,5.0,80,30.35,10.0,Calm,Calm,-,N/A,,Clear,0,2012-12-26 22:53:00
6:53 PM,3.0,-2.0,80,30.34,10.0,Calm,Calm,-,N/A,,Clear,0,2012-12-27 00:53:00
7:53 PM,1.0,-4.0,79,30.34,10.0,Calm,Calm,-,N/A,,Clear,0,2012-12-27 01:53:00
8:53 PM,-0.0,-6.0,76,30.35,10.0,Calm,Calm,-,N/A,,Clear,0,2012-12-27 02:53:00
9:53 PM,-2.0,-8.0,76,30.36,10.0,Calm,Calm,-,N/A,,Clear,0,2012-12-27 03:53:00
10:53 PM,-2.9,-9.0,75,30.34,10.0,Calm,Calm,-,N/A,,Clear,0,2012-12-27 04:53:00
11:53 PM,-2.9,-8.0,79,30.33,10.0,Calm,Calm,-,N/A,,Partly Cloudy,0,2012-12-27 05:53:00